Track METEOR 3M now! 10-day predictions METEOR 3M is classified as:
1 27001U 01056A 21111.18991564 -.00000015 00000-0 34823-4 0 9992 2 27001 99.6151 253.0922 0013274 342.1318 190.9066 13.68848426967334